Location: Dammartin
(48.9032°N, 1.6195°E)
Time: 18:23:44
(UTC+00:00)

BlueWalker 3 - Pass Details

Date: 17 April 2024
Orbit: 482 x 494 km, 53.2° (Epoch: 22 May)

Event Time Altitude Azimuth Distance (km) Brightness Sun altitude
Exits shadow 04:01:29 13° 237° (WSW) 1,513 3.7 -9.4°
Maximum altitude 04:01:58 13° 229° (SW) 1,498 3.7 -9.3°
Drops below altitude 10° 04:03:50 10° 200° (SSW) 1,690 4.2 -9.0°
Sets 04:06:56 0° 172° (S) 2,564 5.3 -8.6°
